Regional Weather Roundup
Issued by NWS

Home | Current Version | Previous Version | Text Only | Print | Product List | Glossary On
Versions: 1 2 3 4 5 6 7 8 9 10 11 12 13 14 15 16 17 18 19 20 21 22 23 24 25 26 27 28 29 30 31 32 33 34 35 36 37 38 39 40 41 42 43 44 45 46 47 48 49 50
000
ASUS43 KDMX 050107
RWRIA

WEATHER ROUNDUP FOR IOWA
NATIONAL WEATHER SERVICE DES MOINES IA
800 PM CDT TUE AUG 04 2015

NOTE: "FAIR" INDICATES FEW OR NO CLOUDS BELOW 12,000 FEET WITH NO
SIGNIFICANT WEATHER AND/OR OBSTRUCTIONS TO VISIBILITY.

* - THESE STATIONS ARE NOT NWS STATIONS...THUS NOT UNDER NWS
QUALITY CONTROL.  THEY ALSO DO NOT REPORT WEATHER SUCH
AS PRECIPITATION OR FOG.

IAZ001>003-012>014-020>022-031>034-043>046-050200-
   NORTHWEST IOWA

CITY           SKY/WX    TMP DP  RH WIND       PRES   REMARKS
CARROLL *      MOCLDY    72  66  83 SE5       30.00S
CHEROKEE *     PTCLDY    73  66  78 E5        30.00R
DENISON *      CLOUDY    72  64  78 E6        29.97S
LE MARS *      MOCLDY    75  66  73 VRB5      29.99R
ORANGE CITY *  CLEAR     73  64  73 E3        30.00R
SHELDON *      CLEAR     72  64  78 E7        30.00R
SIOUX CITY     MOCLDY    75  63  66 E8        29.96F
SPENCER        PTCLDY    73  60  63 E7        30.02R
STORM LAKE *   CLEAR     72  66  83 SE5       30.02R
$$

IAZ055>058-069>071-079>083-090>094-050200-
   SOUTHWEST IOWA

CITY           SKY/WX    TMP DP  RH WIND       PRES   REMARKS
ATLANTIC *     MOCLDY    72  64  78 E7        29.98S
AUDUBON *      MOCLDY    72  66  83 E3        30.00F
CLARINDA *     CLOUDY    73  70  88 N8        29.99R
COUNCIL BLFS * PTCLDY    72  66  83 E9        29.97R
CRESTON *      MOCLDY    70  64  83 E7        30.02R
HARLAN  *      PTCLDY    72  70  94 NE6       30.00F
LAMONI         CLOUDY    74  68  81 E5        30.00R
RED OAK *      CLOUDY    73  66  78 E9        29.98R
SHENANDOAH *   LGT RAIN  72  70  94 NE8       29.97R
$$

IAZ047>049-059>061-072>074-084-050200-
   CENTRAL IOWA

CITY           SKY/WX    TMP DP  RH WIND       PRES   REMARKS
AMES           PTCLDY    73  66  78 SE3       30.00S
ANKENY *       CLEAR     73  66  78 CALM      30.00S
CHARITON *     MOCLDY    72  66  83 SE6       30.01R
DES MOINES     MOCLDY    76  62  62 E6        29.99S
GRINNELL*      PTCLDY    72  64  78 S3        30.02S
KNOXVILLE *    CLEAR     73  64  73 E3        29.99F
MARSHALLTOWN   PTCLDY    75  64  68 CALM      30.01R
PELLA *        PTCLDY    72  68  88 CALM      30.02S
PERRY *          N/A     72  66  83 SE3       30.00S
$$

IAZ004>006-015-016-023>025-035-036-050200-
   NORTH CENTRAL IOWA

CITY           SKY/WX    TMP DP  RH WIND       PRES   REMARKS
ALGONA *       CLEAR     72  61  68 SE5       30.03R
CLARION *      CLEAR     70  63  78 E5        30.02R
ESTHERVILLE    PTCLDY    70  60  70 S6        30.03R
FORT DODGE *   MOCLDY    73  63  68 E5        30.02R
MASON CITY     MOCLDY    71  64  78 CALM      30.04R
FOREST CITY *  CLEAR     68  61  77 CALM      30.03R
IOWA FALLS *     N/A     73  57  56 CALM      30.04R
$$

IAZ007>011-017>019-026>030-037>042-050>054-066-050200-
   NORTHEAST IOWA

CITY           SKY/WX    TMP DP  RH WIND       PRES   REMARKS
CEDAR RAPIDS   MOCLDY    73  68  84 W6        30.01R
CHARLES CITY * CLEAR     70  64  83 CALM      30.03R
CLINTON *      PTCLDY    73  63  68 N5        30.03R
DECORAH *      CLEAR     70  63  78 CALM      30.01R
DUBUQUE        PTCLDY    69  56  62 N7        30.02R
MONTICELLO *   CLEAR     72  63  73 CALM      30.01R
OELWEIN *        N/A    N/A N/A N/A MISG        N/A
WATERLOO       MOCLDY    73  60  63 NE3       30.01R
$$

IAZ064-065-067-068-078-050200-
   EAST CENTRAL IOWA

CITY           SKY/WX    TMP DP  RH WIND       PRES   REMARKS
DAVENPORT      PTCLDY    73  64  73 CALM      30.00R
IOWA CITY      CLOUDY    75  65  70 SW5       30.02R
MT. PLEASANT * MOCLDY    73  63  68 CALM      30.02R
MUSCATINE *    CLEAR     73  64  73 SW5       30.01R
QUAD CITIES    PTCLDY    74  63  68 SW6       29.99R
$$

IAZ062-063-075>077-085>089-095>099-050200-
   SOUTHEAST IOWA

CITY           SKY/WX    TMP DP  RH WIND       PRES   REMARKS
BURLINGTON     CLOUDY    73  67  81 CALM      30.01R
FAIRFIELD *    MOCLDY    72  64  78 CALM      30.02R
FORT MADISON * CLEAR     72  66  83 CALM      30.02R
KEOKUK *       CLEAR     73  68  83 CALM      30.00R
OSKALOOSA *      N/A     70  64  83 CALM      30.02S
CENTERVILLE *  CLEAR     70  66  88 NE5       30.03S
OTTUMWA        MOCLDY    72  67  84 CALM      30.00R
WASHINGTON *   CLEAR     72  68  88 CALM      30.03R
$$

ABBREVIATIONS USED IN REMARKS
   TC - TEMPERATURES IN CELSIUS
  WCI - WIND CHILL INDEX
   HX - HEAT INDEX
  VSB - VISIBILITY
$$



USA.gov is the U.S. government's official web portal to all federal, state and local government web resources and services.